Eagle, CO

6:20 PM MST on December 13, 2017 (GMT -0700)
Eagle County Regional

Weather History for KEGE - February, 2014

Change the Weather History Date:

Friday, February 14, 2014

  Actual Average Record
Temperature  
Mean Temperature 38 °F -  
Max Temperature 44 °F 41 °F 62 °F (2015)
Min Temperature 32 °F 15 °F -14 °F (1966)
Degree Days  
Heating Degree Days 27    
Moisture  
Dew Point 30 °F    
Average Humidity 77    
Maximum Humidity 93    
Minimum Humidity 53    
Precipitation  
Precipitation 0.00 in - - ()
Sea Level Pressure  
Sea Level Pressure 30.10 in    
Wind  
Wind Speed 7 mph (WSW)    
Max Wind Speed 15 mph    
Max Gust Speed -    
Visibility 10 miles    
Events      
Averages and records for this station are not official NWS values.
T = Trace of Precipitation, MM = Missing Value Source: NWS Daily Summary

Daily Weather History Graph

Daily Weather History Graph

Search for Another Location

Airport or City:

Trip Planner

Search our weather history database for the weather conditions in past years. The results will help you decide how hot, cold, wet, or windy it might be!

Date:

Astronomy

Feb. 14, 2014 Rise Set
Actual Time 7:01 AM MST 5:43 PM MST
Civil Twilight 6:33 AM MST 6:10 PM MST
Nautical Twilight 6:01 AM MST 6:42 PM MST
Astronomical Twilight 5:30 AM MST 7:13 PM MST
Moon 5:49 PM MST 6:29 AM MST
Length of Visible Light 11h 37m
Length of Day
10h 41m
Full, 100% of the Moon is Illuminated
Feb 14
Full
Feb 14
Full
Feb 22
Last Quarter
Mar 1
New
Mar 8
First Quarter

Hourly Weather History & Observations

Time (MST) Temp. Windchill Dew Point Humidity Pressure Visibility Wind Dir Wind Speed Gust Speed Precip Events Conditions
12:15 AM 35.6 °F 27.5 °F 32.0 °F 87% 30.05 in 10.0 mi WSW 11.5 mph - N/A   Overcast
12:35 AM 37.4 °F 30.3 °F 32.0 °F 81% 30.07 in 10.0 mi SW 10.4 mph - N/A   Overcast
12:55 AM 37.4 °F 33.8 °F 33.8 °F 87% 30.06 in 10.0 mi SSW 4.6 mph - N/A   Mostly Cloudy
1:15 AM 35.6 °F 29.9 °F 33.8 °F 93% 30.08 in 10.0 mi NE 6.9 mph - N/A   Clear
1:35 AM 35.6 °F 30.7 °F 32.0 °F 87% 30.09 in 10.0 mi ENE 5.8 mph - N/A   Mostly Cloudy
1:55 AM 35.6 °F 32.8 °F 33.8 °F 93% 30.09 in 10.0 mi East 3.5 mph - N/A   Overcast
2:15 AM 35.6 °F - 32.0 °F 87% 30.10 in 10.0 mi Calm Calm - N/A   Overcast
2:35 AM 33.8 °F 28.6 °F 32.0 °F 93% 30.10 in 10.0 mi East 5.8 mph - N/A   Overcast
2:55 AM 35.6 °F - 32.0 °F 87% 30.10 in 10.0 mi Calm Calm - N/A   Overcast
3:15 AM 35.6 °F - 32.0 °F 87% 30.10 in 10.0 mi Calm Calm - N/A   Overcast
3:35 AM 33.8 °F 29.6 °F 32.0 °F 93% 30.10 in 10.0 mi SW 4.6 mph - N/A   Overcast
3:55 AM 35.6 °F - 32.0 °F 87% 30.10 in 10.0 mi Calm Calm - N/A   Overcast
4:15 AM 35.6 °F - 32.0 °F 87% 30.10 in 10.0 mi Calm Calm - N/A   Overcast
4:35 AM 33.8 °F 28.6 °F 30.2 °F 87% 30.11 in 10.0 mi West 5.8 mph - N/A   Overcast
4:55 AM 33.8 °F 29.6 °F 30.2 °F 87% 30.12 in 10.0 mi SW 4.6 mph - N/A   Overcast
5:15 AM 33.8 °F 28.6 °F 30.2 °F 87% 30.12 in 10.0 mi WSW 5.8 mph - N/A   Overcast
5:35 AM 33.8 °F 28.6 °F 30.2 °F 87% 30.12 in 10.0 mi West 5.8 mph - N/A   Overcast
5:55 AM 33.8 °F 28.6 °F 28.4 °F 81% 30.12 in 10.0 mi WNW 5.8 mph - N/A   Partly Cloudy
6:15 AM 32.0 °F 24.2 °F 28.4 °F 87% 30.12 in 10.0 mi West 9.2 mph - N/A   Clear
6:35 AM 33.8 °F 28.6 °F 26.6 °F 75% 30.13 in 10.0 mi WSW 5.8 mph - N/A   Clear
6:50 AM 33.8 °F 28.6 °F 28.4 °F 81% 30.14 in 10.0 mi Variable 5.8 mph - N/A   Mostly Cloudy
7:50 AM 32.0 °F - 28.4 °F 87% 30.15 in 10.0 mi Calm Calm - N/A   Mostly Cloudy
8:50 AM 33.8 °F - 26.6 °F 75% 30.16 in 10.0 mi Calm Calm - N/A   Overcast
9:50 AM 35.6 °F 32.8 °F 26.6 °F 70% 30.17 in 10.0 mi Variable 3.5 mph - N/A   Mostly Cloudy
10:50 AM 37.4 °F - 28.4 °F 70% 30.15 in 10.0 mi Calm Calm - N/A   Mostly Cloudy
11:50 AM 42.8 °F - 30.2 °F 61% 30.13 in 10.0 mi Calm Calm - N/A   Mostly Cloudy
12:50 PM 42.8 °F 38.6 °F 28.4 °F 57% 30.11 in 10.0 mi West 6.9 mph - N/A   Mostly Cloudy
1:50 PM 44.6 °F 38.4 °F 28.4 °F 53% 30.09 in 10.0 mi West 12.7 mph - N/A   Mostly Cloudy
2:50 PM 42.8 °F 37.5 °F 30.2 °F 61% 30.10 in 10.0 mi WSW 9.2 mph - N/A   Mostly Cloudy
3:50 PM 42.8 °F 37.0 °F 30.2 °F 61% 30.09 in 10.0 mi West 10.4 mph - N/A   Overcast
4:50 PM 39.2 °F 31.6 °F 30.2 °F 70% 30.08 in 10.0 mi SW 12.7 mph - N/A   Overcast
5:50 PM 39.2 °F 31.2 °F 30.2 °F 70% 30.08 in 10.0 mi WSW 13.8 mph - N/A   Overcast
6:50 PM 42.8 °F 39.3 °F 30.2 °F 61% 30.10 in 10.0 mi South 5.8 mph - N/A   Overcast
7:50 PM 39.2 °F - 30.2 °F 70% 30.08 in 10.0 mi Calm Calm - N/A   Overcast
8:50 PM 41.0 °F 33.1 °F 30.2 °F 65% 30.07 in 10.0 mi WSW 15.0 mph - N/A   Overcast
9:50 PM - - - N/A% 30.06 in 10.0 mi WSW 15.0 mph - N/A   Overcast
10:50 PM 44.6 °F 38.8 °F 30.2 °F 57% 30.06 in 10.0 mi WSW 11.5 mph - N/A   Overcast
11:15 PM 44.6 °F 38.8 °F 30.2 °F 57% 30.05 in 10.0 mi WSW 11.5 mph - N/A   Overcast
11:35 PM 44.6 °F 38.8 °F 30.2 °F 57% 30.05 in 10.0 mi West 11.5 mph - N/A   Overcast
11:55 PM 42.8 °F 37.0 °F 30.2 °F 61% 30.05 in 10.0 mi West 10.4 mph - N/A   Overcast